Regional Weather Roundup
Issued by NWS San Angelo, TX

Home | Current Version | Previous Version | Text Only | Print | Product List | Glossary On
Versions: 1 2 3 4 5 6 7 8 9 10 11 12 13 14 15 16 17 18 19 20 21 22 23 24 25 26 27 28 29 30 31 32 33 34 35 36 37 38 39 40 41 42 43 44 45 46 47 48 49 50
000
ASUS44 KSJT 282210
RWRSJT
WEST CENTRAL TEXAS REGIONAL WEATHER ROUNDUP
NATIONAL WEATHER SERVICE SAN ANGELO TX
500 PM CDT TUE MAR 28 2017

NOTE: "FAIR" INDICATES FEW OR NO CLOUDS BELOW 12,000 FEET WITH NO
SIGNIFICANT WEATHER AND/OR OBSTRUCTIONS TO VISIBILITY.

TXZ049-054-064>066-071>073-076>078-098-099-113-114-127-128-139-140-
154-155-168>170-282300
...LOCATIONS ACROSS WEST CENTRAL TEXAS...

CITY           SKY/WX    TMP DP  RH WIND       PRES   REMARKS
SAN ANGELO     MOSUNNY   79  62  56 S17G30    29.59F
ABILENE        PTSUNNY   73  64  73 SE24G32   29.59F
DYESS AFB      CLOUDY    72  66  83 S28       29.55F THUNDER
JUNCTION       PTSUNNY   76  65  68 SE16G25   29.65F
SWEETWATER     CLOUDY    74  63  67 SE14G22   29.61S
BROWNWOOD      PTSUNNY   77  63  61 SE21G29   29.64F
COLEMAN        PTCLDY    79  62  57 S25G37    29.62F
SONORA         PTSUNNY   77  64  65 S15       29.67F
OZONA            N/A     79  59  50 MISG      29.63F
BRADY          NOT AVBL
$$

TEXAS PANHANDLE/OKLAHOMA PANHANDLE

CITY           SKY/WX    TMP DP  RH WIND       PRES   REMARKS
AMARILLO       CLOUDY    55  52  89 E14       29.73S
BORGER         CLOUDY    50  49  96 NE10G20   29.75R
CANADIAN       CLOUDY    49  49  97 NE14      29.76F
DALHART        CLOUDY    50  48  93 NE22      29.74F
DUMAS          CLOUDY    48  45  89 NE16      29.74F
GUYMON         NOT AVBL
HEREFORD       MOCLDY    65  54  67 NE8       29.70R
PAMPA          CLOUDY    50  49  97 E20       29.76R
PERRYTON       CLOUDY    47  45  95 E24       29.76F WCI  38
$$

SOUTHERN PANHANDLE/SOUTH PLAINS/ROLLING PLAINS

CITY           SKY/WX    TMP DP  RH WIND       PRES   REMARKS
LUBBOCK        MOSUNNY   73  56  54 NE8G20    29.61F
SNYDER         CLOUDY    62  54  74 S10       29.60S
CHILDRESS      TSTM      65  60  84 SE16G26   29.63F
SEMINOLE       MOCLDY    76  31  19 W8        29.61F
$$

PERMIAN BASIN

CITY           SKY/WX    TMP DP  RH WIND       PRES   REMARKS
MIDLAND        SUNNY     84  29  13 VRB3      29.55F
ODESSA           N/A     85  29  13 W3        29.55F
WINK           PTSUNNY   76  34  21 W23       29.57R
$$

FAR WEST/SOUTHWEST MOUNTAINS/TRANS PECOS

CITY           SKY/WX    TMP DP  RH WIND       PRES   REMARKS
ALPINE         CLEAR     80  14   8 S28G38    29.69F
DRYDEN           N/A     81  63  54 E21G30    29.54F
EL PASO        PTSUNNY   61  25  25 W20G30    29.81F
FORT STOCKTON  SUNNY     90  18   7 SW23G32   29.52F
GUADALUPE PASS CLOUDY    52  30  43 W40G60    29.78R
MARFA          SQUALL    68  27  21 W43G67    29.72R SQUALL  VSB 1/2
PECOS          CLOUDY    78  34  20 CALM      29.56F
$$

DALLAS/FORT WORTH METROPLEX

CITY           SKY/WX    TMP DP  RH WIND       PRES   REMARKS
DFW AIRPORT    PTSUNNY   81  67  62 SE16G22   29.67F
FTW MEACHAM    PTSUNNY   80  65  59 SE16      29.66F
DAL-EXECUTIVE  PTSUNNY   80  66  62 SE18G30   29.69F
GRAND PRAIRIE  SUNNY     77  64  65 SE9G21    29.75S
ADDISON        PTSUNNY   79  64  61 SE13G26   29.70F
MESQUITE       MOCLDY    81  66  61 SE12G20   29.71F
LANCASTER      PTCLDY    80  66  62 SE20G26   29.71F
$$

NORTH CENTRAL TEXAS

CITY           SKY/WX    TMP DP  RH WIND       PRES   REMARKS
SHRMAN/DENISON MOCLDY    74  64  69 E10G16    29.74F
GAINESVILLE    CLOUDY    73  63  69 SE16      29.72F
BRIDGEPORT     MOCLDY    76  65  68 SE15G21   29.68F
DENTON         PTSUNNY   78  66  66 SE16G28   29.68F
WAXAHACHIE     CLOUDY    81  66  60 SE14G21   29.71F
GRANBURY       CLOUDY    80  65  61 SE17      29.67F
$$

WESTERN NORTH TEXAS

CITY           SKY/WX    TMP DP  RH WIND       PRES   REMARKS
WICHITA FALLS  CLOUDY    68  62  81 E14       29.68S
VERNON         CLOUDY    70  58  66 SE18G25   29.67F
BRECKENRIDGE   MOCLDY    77  62  59 SE17G32   29.61F HAZE
COMANCHE       PTSUNNY   80  65  59 SE17G31   29.65F
$$

CENTRAL AND SOUTH CENTRAL TEXAS

CITY           SKY/WX    TMP DP  RH WIND       PRES   REMARKS
AUSTIN/BERGSTM MOSUNNY   86  62  44 SE25G36   29.66F
WACO           PTSUNNY   83  66  56 S21G26    29.68F
HILLSBORO      CLOUDY    80  66  63 SE14G21   29.70F
TEMPLE         MOSUNNY   83  66  56 SE22G30   29.67F
KILLEEN-GRAY   PTSUNNY   81  63  54 SE22G30   29.66F
FORT HOOD      PTSUNNY   82  62  49 S18G26    29.64F
GEORGETOWN     MOSUNNY   82  63  51 SE20G29   29.66F
LAGO VISTA     CLOUDY    81  60  49 S13G28    29.69F
SAN MARCOS     PTSUNNY   82  64  54 SE25G31   29.68F
NEW BRAUNFELS  MOSUNNY   86  58  38 S28G39    29.66F
RANDOLPH AFB   MOSUNNY   84  61  46 SE25G31   29.65F
SAN ANTONIO    PTSUNNY   83  60  45 SE28G40   29.65F
STINSON        PTSUNNY   83  61  47 SE23G32   29.62F
PLEASANTON     NOT AVBL
LA GRANGE      SUNNY     85  62  46 SE17G25   29.68F
GIDDINGS       PTCLDY    84  59  42 SE14G28   29.71F
$$

EAST TEXAS

CITY           SKY/WX    TMP DP  RH WIND       PRES   REMARKS
PARIS          PTSUNNY   77  64  65 E16       29.77F
CLARKSVILLE    NOT AVBL
TYLER          MOSUNNY   82  63  52 SE23      29.75F
LONGVIEW       MOSUNNY   83  65  54 SE13G24   29.77F
PALESTINE      PTCLDY    83  65  54 SE14G23   29.75F
NACOGDOCHES    MOSUNNY   82  63  51 SE14G20   29.77F
$$

TEXAS HILL COUNTRY AND EDWARDS PLATEAU

CITY           SKY/WX    TMP DP  RH WIND       PRES   REMARKS
LLANO          PTCLDY    81  63  54 S17G25    29.68S
HORSESHOE BAY  CLOUDY    81  61  49 SE15G25   29.66F
KERRVILLE      CLOUDY    77  66  68 S23G29    29.67S
FREDERICKSBRG  CLOUDY    76  60  57 S21G28    29.68S
ROCKSPRINGS    MOCLDY    72  68  88 S16       29.67F FOG
HONDO          CLOUDY    83  67  58 SE18G26   29.63F
UVALDE         MOCLDY    82  67  59 SE10      29.61F
DEL RIO        PTSUNNY   81  68  64 SE22G30   29.53F
$$

SOUTHEAST TEXAS

CITY           SKY/WX    TMP DP  RH WIND       PRES   REMARKS
COLLEGE STN    MOSUNNY   85  64  49 SE22G32   29.71F
CALDWELL       NOT AVBL
CROCKETT       LGT RAIN  84  63  48 S16G23    29.78F
BRENHAM        SUNNY     86  61  43 SE18G26   29.73F
HUNTSVILLE     SUNNY     84  59  42 MISG      29.76F
CONROE         SUNNY     82  63  52 SE22G29   29.78F
HOUSTON BUSH   MOSUNNY   81  68  64 SE23G30   29.78F
HOUSTON HOBBY  PTSUNNY   79  67  66 S22G30    29.78F
PERLAND        PTSUNNY   80  68  66 SE18      29.81F
WHARTON        PTCLDY    82  65  56 SE22      29.75F
$$

THE UPPER TEXAS COAST

CITY           SKY/WX    TMP DP  RH WIND       PRES   REMARKS
ORANGE         PTCLDY    79  68  68 SE14G22   29.87F
PORT ARTHUR    PTSUNNY   80  68  66 SE21G26   29.84F
GALVESTON      CLOUDY    79  72  79 SE18G28   29.81F HAZE
ANGLETON       PTSUNNY   79  71  76 SE22G28   29.78F
BAY CITY       CLOUDY    80  71  72 SE16G28   29.75F
$$

TEXAS COASTAL BEND, RIO GRANDE PLAINS DEEP SOUTH TEXAS

CITY           SKY/WX    TMP DP  RH WIND       PRES   REMARKS
VICTORIA       MOSUNNY   83  67  58 SE26G33   29.71F
BEEVILLE       FAIR      82  69  65 SE24G35   29.67F
ROCKPORT       NOT AVBL
PORT ARANSAS   CLOUDY    77  71  81 SE12      29.70F
PORT LAVACA    MOCLDY    79  72  79 SE25G36   29.72F
CORPUS CHRISTI CLOUDY    80  71  74 SE25G36   29.68F
KINGSVILLE NAS PTSUNNY   82  71  69 SE24G33   29.65F
COTULLA        MOSUNNY   91  62  37 SE23G32   29.56F
LAREDO         MOSUNNY   94  66  39 SE22G30   29.55F
BROWNSVILLE    PTSUNNY   83  70  64 SE23G31   29.66F
PORT ISABEL    CLOUDY    83  70  64 SE24G32   29.66F
HEBBRONVILLE   PTCLDY    87  60  40 S18G29    29.62F
MCALLEN        MOSUNNY   88  68  51 SE25G33   29.63F
WESLACO        MOSUNNY   85  67  55 S23G30    29.63F
FALFURRIAS     PTCLDY    88  64  44 SE20G26   29.62F
EDINBURG       CLOUDY    88  65  46 SE22      29.63F
$$




USA.gov is the U.S. government's official web portal to all federal, state and local government web resources and services.